Theta_e
344 343 341 339 334 331 327 325 322 319 316 315 313 312 312 313 313 314 315 316 316 316 315 314 312 313 314 314 313 313 313 313 314 312 311 311 310 309 309 309 308 310 311
336 334 334 331 330 326 325 322 319 315 314 313 313 313 313 313 314 315 315 315 315 314 313 314 313 312 313 312 312 312 312 312 311 311 311 310 309 308 308 308 309 307 310
330 332 331 328 323 320 318 316 314 314 313 313 312 312 312 313 313 313 313 313 312 312 312 312 312 311 311 310 311 311 311 310 310 309 309 306 305 306 306 307 307 307 308
325 327 327 323 318 313 312 313 313 314 313 312 312 312 312 312 312 312 313 313 313 312 312 311 311 309 308 307 308 309 309 308 308 307 305 303 303 303 304 303 303 305 307
321 321 319 315 312 311 312 312 312 311 311 311 311 311 309 307 305 309 312 313 313 313 312 311 310 305 304 302 303 305 305 306 306 304 302 302 302 301 302 302 303 304 307
319 317 315 314 315 313 312 312 311 311 310 311 310 310 307 303 304 306 309 312 312 312 312 310 309 308 305 303 303 305 306 305 305 303 302 301 301 301 301 302 303 304 308
318 318 317 315 313 312 311 311 311 310 310 310 309 308 306 302 302 305 308 311 311 310 309 308 308 307 304 301 303 309 310 308 306 304 302 300 301 301 301 302 304 306 307
318 316 314 312 311 311 310 310 310 310 310 310 309 308 305 300 302 304 306 309 310 309 307 304 303 304 300 299 301 309 310 310 306 304 303 301 301 301 301 303 305 305 306
314 313 312 311 311 310 310 310 309 309 308 307 307 306 304 298 299 302 305 307 307 307 305 303 299 299 297 299 302 306 307 307 305 304 303 303 302 302 302 303 304 305 306
312 311 311 310 310 309 309 309 308 307 306 306 304 302 298 299 295 295 300 301 304 302 304 302 300 296 296 295 298 301 303 303 305 304 303 305 304 303 302 303 303 303 304
310 309 309 308 308 307 307 307 307 306 305 304 302 300 298 294 295 296 294 297 297 300 299 298 298 295 295 295 296 298 298 300 305 302 298 302 302 302 301 304 303 303 303
307 307 306 306 306 306 306 306 306 306 306 305 303 301 298 297 292 291 291 291 293 296 295 293 294 295 296 297 297 297 298 302 303 302 298 298 298 298 300 303 304 303 303
305 305 305 305 305 305 305 304 304 304 304 304 303 302 299 296 295 293 293 293 291 294 293 292 292 296 298 300 298 298 299 299 299 301 300 297 296 297 300 303 304 304 303
304 303 303 302 302 302 302 303 303 303 303 303 303 302 300 295 291 291 293 294 293 293 295 295 294 296 297 298 299 299 299 296 296 297 299 300 298 297 298 301 303 304 303
302 302 302 301 301 299 297 296 294 293 297 299 296 295 295 292 287 285 286 288 290 291 294 294 294 294 295 295 296 296 298 298 297 296 298 300 300 298 297 300 301 302 303
302 302 301 301 299 297 294 291 289 288 289 290 291 291 288 285 285 286 287 287 289 291 293 293 292 292 292 292 292 293 295 296 298 297 298 299 299 300 299 299 300 301 303
302 302 301 302 300 298 296 294 292 289 288 287 286 286 285 286 286 287 288 289 289 291 291 291 291 291 291 291 290 292 293 294 296 297 298 298 300 300 301 300 300 301 301
301 301 301 301 301 300 299 299 298 296 295 293 290 289 288 288 287 288 289 291 291 290 290 290 290 290 290 290 290 291 293 293 294 295 296 297 298 300 301 301 301 301 301
300 300 299 299 298 298 297 297 296 295 295 294 294 292 291 290 290 289 289 290 290 290 289 289 289 288 288 289 290 291 292 292 293 294 294 296 297 299 300 300 301 301 301
296 296 296 296 296 296 296 296 295 294 293 292 291 291 292 292 291 291 290 289 289 289 288 288 288 287 287 288 288 290 291 291 292 293 294 295 296 298 300 300 300 300 300
295 295 294 295 295 295 295 294 294 293 293 291 289 288 289 291 290 290 289 289 288 288 287 287 287 286 287 287 287 288 289 290 291 291 293 294 295 297 299 300 300 299 299
295 295 295 294 294 294 294 293 293 293 292 292 291 289 289 289 289 289 289 288 288 287 287 286 286 286 285 286 286 286 287 288 289 290 292 293 294 295 297 299 300 299 298
295 294 294 293 292 292 293 293 292 292 291 291 290 290 289 289 288 288 288 288 287 287 286 286 286 285 285 285 285 285 285 285 287 288 292 293 293 293 295 297 299 299 297
294 294 294 293 293 293 292 291 290 290 291 290 290 289 288 288 288 288 287 287 287 287 286 286 285 285 285 284 284 284 283 285 285 287 291 292 293 292 294 295 298 299 297
294 293 293 293 293 292 292 292 291 290 290 290 289 288 288 287 287 287 287 287 287 286 286 286 285 284 284 283 282 282 283 284 286 287 289 291 291 291 292 293 296 298 296
294 294 293 293 293 292 292 291 291 290 289 289 289 288 287 287 287 286 286 286 286 286 286 285 285 284 283 282 281 281 282 283 285 287 288 289 289 291 290 292 293 297 295
Wind_Speed
30 29 27 24 22 21 20 20 19 17 14 14 13 12 11 9 8 6 5 5 7 11 11 10 11 11 11 11 14 14 17 19 15 25 28 29 27 26 28 30 28 28 28
28 27 31 28 22 22 22 21 18 16 15 14 13 12 11 10 8 6 8 9 10 9 9 9 8 8 11 13 15 16 18 20 22 24 29 29 29 28 26 30 26 29 29
28 29 28 24 23 22 23 21 19 17 16 15 13 12 11 9 9 10 9 8 7 8 8 7 9 11 14 16 16 18 19 21 22 24 27 28 29 27 28 26 30 29 25
32 30 28 25 24 24 22 20 19 17 16 14 13 12 12 11 10 8 7 8 8 8 7 8 11 14 15 17 17 18 19 21 22 23 24 26 26 28 27 24 29 28 27
32 30 27 27 27 25 21 19 19 17 15 14 14 13 13 12 9 7 8 8 8 8 10 11 10 14 16 18 18 20 19 21 22 22 22 23 23 26 22 27 27 29 27
32 32 30 29 25 22 21 20 19 17 16 15 14 13 12 11 13 11 10 9 9 9 10 12 13 15 20 22 21 20 18 17 21 18 21 20 24 25 26 27 25 20 6
33 30 28 26 24 22 20 19 18 17 15 15 14 12 12 11 12 12 13 8 9 11 12 15 15 16 19 23 21 19 17 17 17 19 19 24 26 27 30 27 26 24 21
31 29 26 25 24 22 20 20 18 16 15 13 12 11 12 14 12 11 12 9 9 10 11 13 15 17 21 24 20 21 20 17 19 21 23 26 26 28 27 27 23 25 22
30 28 25 24 23 21 20 19 17 16 15 14 12 13 13 14 13 10 10 8 9 8 10 10 16 16 21 23 20 22 22 20 21 24 24 25 24 26 28 25 25 21 14
29 27 25 23 22 21 20 18 17 16 15 13 14 13 12 12 16 15 10 8 8 9 8 10 16 17 20 25 20 22 23 24 25 29 28 24 23 26 29 25 26 19 14
29 27 25 24 22 20 19 17 16 16 15 13 13 13 13 16 13 13 13 12 10 10 11 13 15 20 19 25 22 20 21 22 21 21 26 24 25 27 33 32 28 22 19
29 28 25 22 20 19 19 17 15 14 13 11 11 11 12 12 17 15 15 12 9 9 11 13 15 21 19 19 21 26 25 21 20 21 25 26 29 32 35 32 26 23 19
30 28 25 23 21 20 19 17 15 12 11 9 8 9 10 12 13 18 18 19 17 10 12 18 21 19 17 14 20 23 23 24 23 23 24 26 29 31 29 30 25 26 19
30 28 25 24 24 21 20 17 15 13 11 10 9 9 10 13 16 16 14 13 13 12 12 12 16 16 16 17 18 20 22 24 23 23 26 24 29 31 31 32 27 28 22
30 28 26 25 24 24 24 21 20 17 14 13 14 12 11 12 14 20 17 14 11 12 12 13 16 19 20 21 21 22 23 25 26 26 26 27 29 30 33 31 29 27 24
28 25 25 24 24 25 26 28 28 26 24 19 15 15 15 12 10 13 19 18 19 17 14 17 19 20 21 22 23 24 25 26 26 26 26 27 27 28 30 31 30 28 23
26 24 23 21 21 21 20 20 21 22 24 24 24 24 22 17 14 14 16 16 23 16 18 19 20 21 21 22 23 24 25 25 25 25 26 27 28 28 30 29 30 29 27
24 22 21 19 18 17 15 14 13 13 13 14 18 17 21 23 24 22 18 14 16 19 20 20 20 21 22 22 24 24 25 26 27 26 27 27 28 26 29 29 28 28 26
22 21 20 19 17 17 16 15 15 14 13 12 11 12 16 16 21 22 20 19 18 20 20 21 20 21 22 22 23 23 24 25 26 26 27 27 28 27 27 29 28 30 29
23 22 21 20 18 17 15 15 15 14 13 13 14 13 13 14 17 17 19 18 18 19 19 20 20 21 21 22 23 24 25 25 27 27 27 28 28 26 27 25 28 26 28
21 20 20 19 17 16 16 15 14 13 14 15 17 15 15 14 15 16 17 17 17 18 19 19 20 21 21 23 23 24 25 25 26 27 27 28 29 28 27 26 26 26 26
19 19 18 18 17 16 15 14 14 14 14 13 12 13 15 14 14 14 15 16 16 16 17 18 19 21 21 22 24 25 25 25 26 27 27 28 28 27 26 26 26 28 25
19 18 18 18 17 16 15 14 14 14 14 13 12 12 13 14 13 13 14 14 14 15 16 17 19 20 22 21 22 23 24 24 25 23 25 27 27 28 26 25 25 26 27
18 17 16 16 15 15 15 14 14 14 12 12 12 13 12 12 12 13 13 13 13 14 15 16 17 20 21 22 22 22 23 25 22 20 23 25 25 27 25 26 25 25 26
16 17 16 15 15 14 13 12 12 11 11 11 11 11 11 11 12 11 12 12 12 13 14 15 17 18 19 21 23 24 25 24 24 25 22 23 23 26 25 25 25 24 27
15 15 14 13 13 12 11 11 10 10 10 9 10 10 10 11 10 10 11 12 12 12 13 14 16 17 19 20 24 26 26 24 25 27 24 24 24 24 26 25 25 25 26
Wind_Direction
137 140 139 133 124 127 123 122 116 120 121 104 90 81 76 68 62 58 60 40 34 25 17 3 355 337 330 336 341 338 331 332 317 321 327 330 330 328 325 325 323 321 320
128 127 134 126 127 125 120 118 123 114 102 95 88 83 74 67 67 63 50 35 30 18 7 6 1 354 346 349 343 338 328 325 325 319 324 330 330 330 327 324 324 325 324
127 126 124 123 125 120 115 115 113 106 92 82 76 72 74 71 62 50 41 36 28 23 24 16 1 3 357 349 345 337 331 326 328 326 321 327 327 331 328 324 328 328 330
121 120 119 121 119 115 112 109 104 96 89 86 84 81 76 68 59 53 42 34 35 32 21 10 8 6 353 343 340 335 331 331 333 327 323 321 323 320 322 325 319 323 326
117 116 118 119 115 112 111 105 95 91 91 92 90 84 77 64 49 41 35 36 30 22 18 12 359 356 349 345 335 332 333 332 332 327 317 318 319 321 321 318 312 315 320
116 117 119 115 115 111 104 99 97 94 92 93 89 84 74 57 50 57 59 29 29 24 16 9 7 0 352 341 337 339 329 314 323 318 313 312 311 315 316 314 310 311 316
119 121 120 118 112 109 106 104 101 100 103 100 95 86 73 53 42 50 62 31 31 24 17 10 3 355 347 345 340 340 341 339 337 328 319 317 312 318 316 312 319 317 315
120 118 118 115 112 110 109 107 108 105 103 99 89 76 63 39 31 33 44 22 21 19 14 9 3 354 346 349 342 343 346 345 341 333 334 330 329 336 330 320 321 323 327
115 115 116 115 114 112 108 106 105 104 99 92 81 68 54 36 29 29 32 12 12 6 2 352 360 357 355 2 354 345 343 348 351 348 341 341 344 348 356 345 351 344 339
115 114 113 112 112 110 110 108 105 102 95 88 76 63 57 38 32 35 36 13 5 356 352 359 339 345 8 14 4 351 345 347 348 352 350 352 350 350 353 1 356 345 344
112 111 111 110 110 110 108 105 104 100 95 87 78 64 51 39 26 28 34 25 8 354 357 355 350 358 13 14 10 358 350 346 350 0 354 354 354 356 354 360 1 359 349
111 110 108 108 109 108 104 100 98 96 93 87 78 67 51 41 27 22 26 28 29 8 2 356 351 13 15 6 5 6 7 4 360 3 359 357 347 346 346 351 358 5 7
110 109 108 107 104 101 99 96 93 89 87 83 80 73 57 39 27 12 7 10 14 20 4 2 6 5 7 8 5 7 10 8 3 3 359 349 345 343 348 355 1 4 5
110 109 109 105 100 94 88 85 84 82 82 79 74 65 54 39 25 17 13 9 2 8 7 5 9 13 12 13 12 8 11 10 6 1 357 350 353 355 357 358 359 2 9
111 112 108 102 98 92 79 76 74 64 65 73 60 54 45 45 33 38 30 22 18 20 20 22 22 22 14 13 11 8 8 6 7 4 1 357 355 358 358 359 2 2 13
114 112 110 107 103 99 96 85 78 79 78 78 78 75 54 53 44 39 44 40 45 39 36 30 26 25 17 10 8 6 7 4 2 3 3 1 357 358 355 359 4 5 1
112 113 112 113 113 112 109 105 99 79 71 69 65 62 59 56 54 50 44 34 36 40 41 31 26 23 17 12 9 6 3 3 1 5 5 3 359 2 2 360 2 5 6
109 111 113 114 114 115 114 107 100 94 90 80 59 56 47 45 47 52 44 40 33 35 37 31 24 20 16 12 9 5 3 5 6 6 6 5 3 1 4 2 3 3 0
111 110 110 109 108 108 105 102 97 89 79 73 75 59 41 41 40 38 38 37 34 33 29 28 23 19 15 12 9 6 5 5 5 7 7 6 5 2 5 7 3 4 5
103 108 111 111 109 105 105 102 98 92 84 72 58 47 40 44 41 37 37 32 30 33 28 24 21 19 15 12 10 7 5 6 6 8 7 6 7 7 6 10 8 4 4
111 107 106 107 107 107 104 102 100 96 87 77 64 54 52 50 45 39 36 33 27 29 28 22 19 18 14 12 10 7 6 5 5 5 5 5 8 6 8 9 13 9 8
110 109 108 107 107 104 103 99 93 87 80 75 71 54 52 52 46 43 39 34 26 28 28 25 21 18 15 12 9 6 4 2 1 2 2 3 7 7 8 9 13 13 10
112 112 109 107 109 110 100 92 87 82 77 71 65 57 51 49 45 40 39 35 28 27 27 27 24 19 17 15 12 8 3 358 358 358 359 3 6 6 9 10 13 13 9
116 117 116 111 105 100 96 95 91 84 82 76 67 60 52 47 43 38 36 34 29 28 28 28 25 21 18 17 13 10 4 8 6 359 360 5 7 8 9 12 12 17 15
116 114 112 108 104 102 100 93 88 84 80 75 72 69 64 52 42 35 33 32 29 27 27 27 24 20 18 16 15 13 13 18 28 19 8 8 8 13 11 14 13 18 15
114 110 109 107 105 102 98 96 94 90 86 81 74 65 57 57 47 35 32 29 27 25 25 23 20 19 18 14 16 20 18 24 30 26 20 13 13 14 14 16 16 21 16